Miscellaneous Local Product
Issued by NWS Hastings, NE

Home | Current Version | Previous Version | Text Only | Print | Product List | Glossary Off
Versions: 1 2 3 4 5 6 7 8 9 10 11 12 13 14 15 16 17 18 19 20 21 22 23 24 25 26 27 28 29 30 31 32 33 34 35 36 37 38 39 40 41 42 43 44 45 46 47 48 49 50

000
AXUS43 KGID 260502
MISGRI

GID CWA HOURLY WEATHER ROUNDUP
NATIONAL WEATHER SERVICE HASTINGS NE
1200 AM CDT THU APR 26 2018

NOTE: "FAIR" INDICATES FEW OR NO CLOUDS BELOW 12,000 FEET WITH NO
SIGNIFICANT WEATHER AND/OR OBSTRUCTIONS TO VISIBILITY.

...SOUTH CENTRAL NEBRASKA...

CITY           SKY/WX    TMP DP  RH WIND       PRES   REMARKS
GRAND ISLAND   CLOUDY    43  34  70 S8        30.00F
KEARNEY        PTCLDY    43  35  73 S10       30.01F
HASTINGS       CLOUDY    42  34  73 S7        30.01F
ORD            CLOUDY    41  34  76 S7        29.96F
YORK             N/A     41  37  87 S8        30.02F
AURORA         CLOUDY    43  33  66 SW9       30.01F
LEXINGTON      CLOUDY    45  35  68 S9        29.99F
HOLDREGE       PTCLDY    45  35  69 S8        30.00F
HEBRON         CLOUDY    43  38  80 SW8       30.03F

...NEBRASKA PANHANDLE...

CITY           SKY/WX    TMP DP  RH WIND       PRES   REMARKS
CHADRON        MOCLDY    58  28  32 N17       29.92R
ALLIANCE       MOCLDY    42  33  70 SE7       29.90F
SCOTTSBLUFF    CLEAR     50  31  48 VRB3      29.90F
SIDNEY         CLOUDY    45  32  60 SW12      29.96F

...WESTERN AND NORTH CENTRAL NEBRASKA...

CITY           SKY/WX    TMP DP  RH WIND       PRES   REMARKS
VALENTINE      CLOUDY    52  30  43 S9        29.89F
AINSWORTH      CLOUDY    47  34  59 S10       29.92F
ONEILL         MOCLDY    46  34  62 S7        29.96S
BROKEN BOW     CLOUDY    45  34  65 S9        29.96F
IMPERIAL       MOCLDY    45  34  65 S9        29.98F
NORTH PLATTE   PTCLDY    45  32  60 S7        29.97F
MCCOOK         PTCLDY    44  35  70 SW5       29.99F

...EASTERN NEBRASKA...

CITY           SKY/WX    TMP DP  RH WIND       PRES   REMARKS
NORFOLK        CLOUDY    47  32  56 S10       29.96F
SO SIOUX CITY  CLOUDY    43  35  73 SW6       29.98F
TEKAMAH        CLOUDY    38  29  70 W3        29.99F
COLUMBUS       CLOUDY    47  34  60 S12       30.00F
ALBION         CLOUDY    43  32  66 CALM      29.98F
OMAHA EPPLEY   CLOUDY    49  34  56 CALM      29.99F
MILLARD        CLOUDY    49  35  58 CALM      30.00F
LINCOLN        CLOUDY    45  32  60 W3        30.03F
NEBRASKA CITY  CLEAR     42  37  82 SW7       30.00F
BEATRICE       CLOUDY    41  37  87 CALM      30.03S
FALLS CITY     CLEAR     41  35  79 W6        30.02F

...NORTHERN KANSAS...

CITY           SKY/WX    TMP DP  RH WIND       PRES   REMARKS
GOODLAND       CLEAR     42  32  67 S14       30.00F
HILL CITY      CLOUDY    40  35  83 CALM      30.03F
NORTON         CLEAR     46  36  66 S8        30.01F
PHILLIPSBURG   CLEAR     43  36  75 CALM      30.03F
SMITH CENTER   CLEAR     37  36  93 SE7       30.04F WCI  32
BELOIT         CLEAR     37  36  93 CALM      30.05S
HAYS           CLEAR     38  35  89 CALM      30.06F
RUSSELL        CLEAR     38  38 100 S9        30.04F WCI  31
CONCORDIA      CLEAR     41  38  89 S9        30.03F
SALINA         FOG       38  38 100 S7        30.05F VSB 1/2 WCI  33
TOPEKA         CLEAR     42  42 100 W5        30.03F FOG



USA.gov is the U.S. government's official web portal to all federal, state and local government web resources and services.